TimeCST,TemperatureF,Dew PointF,Humidity,Sea Level PressureIn,VisibilityMPH,Wind Direction,Wind SpeedMPH,Gust SpeedMPH,PrecipitationIn,Events,Conditions,WindDirDegrees,DateUTC
12:53 AM,-11.0,-16.1,78,30.47,10.0,West,3.5,-,N/A,,Clear,260,2014-01-03 06:53:00
1:53 AM,-11.9,-16.1,82,30.47,10.0,WSW,3.5,-,N/A,,Clear,240,2014-01-03 07:53:00
2:53 AM,-11.0,-15.0,83,30.46,10.0,South,3.5,-,N/A,,Clear,170,2014-01-03 08:53:00
3:53 AM,-13.0,-17.0,82,30.43,10.0,ESE,5.8,-,N/A,,Clear,110,2014-01-03 09:53:00
4:53 AM,-9.9,-13.0,86,30.40,10.0,SSE,6.9,-,N/A,,Partly Cloudy,160,2014-01-03 10:53:00
5:53 AM,-5.1,-9.0,83,30.35,10.0,SSE,11.5,-,N/A,,Clear,160,2014-01-03 11:53:00
6:53 AM,-0.0,-4.0,83,30.32,10.0,South,13.8,-,N/A,,Clear,170,2014-01-03 12:53:00
7:53 AM,1.0,-4.0,79,30.29,10.0,South,16.1,-,N/A,,Overcast,170,2014-01-03 13:53:00
8:53 AM,3.9,-2.9,73,30.25,10.0,South,18.4,-,N/A,,Overcast,170,2014-01-03 14:53:00
9:53 AM,5.0,-2.0,73,30.22,10.0,South,17.3,27.6,N/A,,Overcast,170,2014-01-03 15:53:00
10:53 AM,7.0,-0.9,70,30.17,10.0,South,21.9,28.8,N/A,,Overcast,170,2014-01-03 16:53:00
11:53 AM,10.9,1.9,67,30.08,10.0,South,23.0,-,N/A,,Clear,170,2014-01-03 17:53:00
12:53 PM,12.9,6.1,74,30.00,10.0,South,26.5,34.5,N/A,,Clear,170,2014-01-03 18:53:00
1:53 PM,18.0,10.0,71,29.92,8.0,South,25.3,34.5,N/A,,Clear,170,2014-01-03 19:53:00
2:53 PM,19.9,12.0,71,29.85,9.0,South,26.5,34.5,N/A,,Clear,170,2014-01-03 20:53:00
3:53 PM,21.9,14.0,72,29.83,10.0,South,21.9,28.8,N/A,,Clear,170,2014-01-03 21:53:00
4:53 PM,23.0,15.1,72,29.80,10.0,South,21.9,31.1,N/A,,Clear,170,2014-01-03 22:53:00
5:53 PM,23.0,16.0,74,29.79,10.0,South,16.1,-,N/A,,Clear,170,2014-01-03 23:53:00
6:53 PM,24.1,17.1,75,29.76,10.0,South,20.7,28.8,N/A,,Clear,180,2014-01-04 00:53:00
7:53 PM,21.9,16.0,78,29.75,10.0,South,16.1,-,N/A,,Clear,170,2014-01-04 01:53:00
8:53 PM,26.1,19.0,75,29.71,10.0,South,21.9,28.8,N/A,,Clear,180,2014-01-04 02:53:00
9:53 PM,27.0,19.0,72,29.69,10.0,South,23.0,29.9,N/A,,Clear,180,2014-01-04 03:53:00
10:53 PM,27.0,19.9,75,29.67,10.0,South,19.6,-,N/A,,Clear,190,2014-01-04 04:53:00
11:53 PM,28.0,21.0,75,29.66,10.0,SSW,20.7,-,N/A,,Clear,200,2014-01-04 05:53:00